Roanoke Rapids, NC

9:55 AM EDT on April 30, 2017 (GMT -0400)
Roanoke Rapids

Weather History for KIXA - October, 2012

Change the Weather History Date:

Monday, October 29, 2012

  Actual Average (KETC) Record (KETC)
Temperature  
Mean Temperature 47 °F -  
Max Temperature 53 °F 70 °F 95 °F (2014)
Min Temperature 41 °F 44 °F 20 °F (1976)
Degree Days  
Heating Degree Days 18    
Moisture  
Dew Point 47 °F    
Average Humidity 96    
Maximum Humidity 100    
Minimum Humidity 93    
Precipitation  
Precipitation 0.31 in - - ()
Sea Level Pressure  
Sea Level Pressure 29.36 in    
Wind  
Wind Speed 13 mph (WNW)    
Max Wind Speed 23 mph    
Max Gust Speed 37 mph    
Visibility 7 miles    
Events Rain    
Averages and records for this station are not official NWS values.
T = Trace of Precipitation, MM = Missing Value Source: NWS Daily Summary

Daily Weather History Graph

Daily Weather History Graph

Search for Another Location

Airport or City:

Trip Planner

Search our weather history database for the weather conditions in past years. The results will help you decide how hot, cold, wet, or windy it might be!

Date:

Astronomy

Oct. 29, 2012 Rise Set
Actual Time 7:31 AM EDT 6:16 PM EDT
Civil Twilight 7:04 AM EDT 6:43 PM EDT
Nautical Twilight 6:34 AM EDT 7:13 PM EDT
Astronomical Twilight 6:04 AM EDT 7:43 PM EDT
Moon 6:08 PM EDT (10/29) 7:18 AM EDT (10/29)
Length of Visible Light 11h 38m
Length of Day
10h 45m
Full, 100% of the Moon is Illuminated
Oct 29
Full
Oct 29
Full
Nov 6
Last Quarter
Nov 13
New
Nov 20
First Quarter

Hourly Weather History & Observations

Time (EDT) Temp. Windchill Dew Point Humidity Pressure Visibility Wind Dir Wind Speed Gust Speed Precip Events Conditions
12:15 AM 53.6 °F - 51.8 °F 94% 29.49 in 4.0 mi NNW 13.8 mph 23.0 mph N/A   Drizzle
12:35 AM 53.6 °F - 51.8 °F 94% 29.49 in 3.0 mi NNW 12.7 mph 20.7 mph N/A   Drizzle
12:55 AM 53.6 °F - 51.8 °F 94% 29.49 in 3.0 mi NW 11.5 mph 20.7 mph N/A   Drizzle
1:15 AM 51.8 °F - 51.8 °F 100% 29.48 in 3.0 mi NW 12.7 mph 18.4 mph N/A   Drizzle
1:35 AM 51.8 °F - 51.8 °F 100% 29.48 in 3.0 mi NW 13.8 mph 19.6 mph N/A Rain Rain
1:55 AM 51.8 °F - 51.8 °F 100% 29.48 in 3.0 mi NW 15.0 mph 21.9 mph 0.01 in Rain Heavy Rain
2:15 AM 51.8 °F - 51.8 °F 100% 29.47 in 3.0 mi NW 11.5 mph 23.0 mph N/A   Heavy Drizzle
2:35 AM 51.8 °F - 51.8 °F 100% 29.46 in 4.0 mi NW 12.7 mph 23.0 mph N/A Rain Light Rain
2:55 AM 51.8 °F - 51.8 °F 100% 29.45 in 4.0 mi NW 15.0 mph 18.4 mph N/A   Drizzle
3:35 AM 51.8 °F - 51.8 °F 100% 29.45 in 3.0 mi NW 10.4 mph 18.4 mph N/A   Drizzle
3:55 AM 51.8 °F - 51.8 °F 100% 29.44 in 3.0 mi NNW 11.5 mph 19.6 mph 0.02 in   Heavy Drizzle
4:15 AM 51.8 °F - 51.8 °F 100% 29.44 in 3.0 mi NW 13.8 mph 19.6 mph 0.01 in Rain Rain
4:35 AM 51.8 °F - 51.8 °F 100% 29.43 in 3.0 mi NW 13.8 mph - 0.02 in   Heavy Drizzle
4:55 AM 51.8 °F - 51.8 °F 100% 29.42 in 3.0 mi NW 10.4 mph 26.5 mph 0.04 in Rain Light Rain
5:35 AM 51.8 °F - 51.8 °F 100% 29.43 in 5.0 mi NW 12.7 mph 19.6 mph N/A   Drizzle
6:15 AM 51.8 °F - 51.8 °F 100% 29.42 in 5.0 mi NW 11.5 mph 18.4 mph 0.01 in Rain Rain
6:35 AM 51.8 °F - 50.0 °F 94% 29.43 in 5.0 mi NW 11.5 mph 17.3 mph 0.01 in   Drizzle
6:55 AM 51.8 °F - 50.0 °F 94% 29.42 in 4.0 mi NW 12.7 mph 21.9 mph 0.02 in   Heavy Drizzle
7:15 AM 50.0 °F - 50.0 °F 100% 29.43 in 4.0 mi WNW 10.4 mph - N/A   Heavy Drizzle
7:35 AM 50.0 °F - 50.0 °F 100% 29.43 in 3.0 mi WNW 10.4 mph 19.6 mph 0.01 in   Drizzle
7:55 AM 50.0 °F - 48.2 °F 94% 29.43 in 4.0 mi WNW 10.4 mph 16.1 mph 0.01 in   Drizzle
8:15 AM 50.0 °F - 48.2 °F 94% 29.43 in 5.0 mi WNW 12.7 mph 18.4 mph N/A   Drizzle
8:35 AM 48.2 °F - 48.2 °F 100% 29.43 in 4.0 mi WNW 11.5 mph 19.6 mph 0.01 in   Drizzle
8:55 AM 48.2 °F - 46.4 °F 93% 29.43 in 4.0 mi WNW 12.7 mph 19.6 mph 0.01 in   Drizzle
9:15 AM 48.2 °F - 46.4 °F 93% 29.42 in 5.0 mi WNW 9.2 mph 20.7 mph N/A   Drizzle
9:35 AM 48.2 °F - 46.4 °F 93% 29.41 in 7.0 mi WNW 11.5 mph 20.7 mph N/A   Drizzle
9:55 AM 48.2 °F - 46.4 °F 93% 29.41 in 10.0 mi WNW 13.8 mph 19.6 mph 0.01 in Rain Light Rain
10:15 AM 46.4 °F 40.7 °F 46.4 °F 100% 29.40 in 10.0 mi WNW 12.7 mph 19.6 mph 0.01 in   Drizzle
10:35 AM 46.4 °F 40.4 °F 46.4 °F 100% 29.40 in 10.0 mi WNW 13.8 mph 20.7 mph 0.02 in Rain Light Rain
10:55 AM 46.4 °F 41.9 °F 46.4 °F 100% 29.38 in 10.0 mi WNW 9.2 mph - 0.03 in Rain Light Rain
11:15 AM 46.4 °F 41.9 °F 46.4 °F 100% 29.38 in 10.0 mi WNW 9.2 mph 16.1 mph 0.02 in Rain Light Rain
11:35 AM 46.4 °F 41.5 °F 46.4 °F 100% 29.37 in 10.0 mi WNW 10.4 mph 20.7 mph 0.03 in Rain Light Rain
11:55 AM 46.4 °F 40.7 °F 46.4 °F 100% 29.37 in 10.0 mi West 12.7 mph 18.4 mph 0.04 in Rain Light Rain
12:15 PM 46.4 °F 40.7 °F 44.6 °F 93% 29.37 in 10.0 mi WNW 12.7 mph 16.1 mph N/A Rain Light Rain
12:35 PM 46.4 °F 41.1 °F 44.6 °F 93% 29.36 in 10.0 mi WNW 11.5 mph 21.9 mph 0.01 in Rain Light Rain
12:55 PM 46.4 °F 40.7 °F 44.6 °F 93% 29.35 in 10.0 mi West 12.7 mph 19.6 mph 0.02 in Rain Light Rain
1:15 PM 46.4 °F 41.1 °F 44.6 °F 93% 29.34 in 10.0 mi West 11.5 mph 18.4 mph N/A Rain Light Rain
1:55 PM 44.6 °F 38.8 °F 44.6 °F 100% 29.33 in 10.0 mi West 11.5 mph 24.2 mph 0.02 in Rain Light Rain
2:15 PM 44.6 °F 38.4 °F 44.6 °F 100% 29.32 in 10.0 mi West 12.7 mph 23.0 mph 0.01 in Rain Rain
2:55 PM 44.6 °F 37.8 °F 44.6 °F 100% 29.29 in 10.0 mi West 15.0 mph 20.7 mph 0.02 in Rain Light Rain
3:15 PM 44.6 °F 38.1 °F 42.8 °F 93% 29.29 in 10.0 mi West 13.8 mph 27.6 mph 0.01 in   Drizzle
3:35 PM 44.6 °F 37.2 °F 42.8 °F 93% 29.28 in 10.0 mi West 17.3 mph 28.8 mph 0.01 in   Drizzle
3:55 PM 44.6 °F 36.9 °F 42.8 °F 93% 29.28 in 10.0 mi West 18.4 mph 27.6 mph 0.01 in   Drizzle
4:15 PM 44.6 °F 38.1 °F 42.8 °F 93% 29.27 in 10.0 mi West 13.8 mph 24.2 mph 0.01 in   Drizzle
4:35 PM 44.6 °F 37.2 °F 42.8 °F 93% 29.27 in 10.0 mi West 17.3 mph 23.0 mph 0.01 in Rain Rain
4:55 PM 44.6 °F 37.2 °F 42.8 °F 93% 29.26 in 10.0 mi WSW 17.3 mph 27.6 mph 0.02 in Rain Light Rain
5:15 PM 44.6 °F 36.9 °F 42.8 °F 93% 29.25 in 10.0 mi West 18.4 mph 26.5 mph 0.01 in Rain Rain
5:35 PM 44.6 °F 37.4 °F 42.8 °F 93% 29.24 in 10.0 mi West 16.1 mph 29.9 mph 0.01 in   Drizzle
6:15 PM 44.6 °F 37.4 °F 42.8 °F 93% 29.24 in 10.0 mi West 16.1 mph 25.3 mph N/A   Drizzle
6:35 PM 42.8 °F 34.5 °F 42.8 °F 100% 29.24 in 10.0 mi West 18.4 mph 25.3 mph N/A   Drizzle
6:55 PM 42.8 °F 34.8 °F 41.0 °F 93% 29.23 in 10.0 mi WSW 17.3 mph 26.5 mph N/A   Drizzle
7:15 PM 42.8 °F 34.8 °F 41.0 °F 93% 29.24 in 10.0 mi WSW 17.3 mph 28.8 mph N/A   Drizzle
7:35 PM 42.8 °F 34.0 °F 41.0 °F 93% 29.23 in 10.0 mi West 20.7 mph 27.6 mph 0.01 in Rain Light Rain
7:55 PM 42.8 °F 34.3 °F 41.0 °F 93% 29.23 in 10.0 mi WSW 19.6 mph 36.8 mph 0.01 in   Drizzle
8:15 PM 42.8 °F 34.3 °F 41.0 °F 93% 29.23 in 10.0 mi WSW 19.6 mph 32.2 mph N/A   Drizzle
8:35 PM 41.0 °F 32.2 °F 39.2 °F 93% 29.22 in 10.0 mi WSW 18.4 mph 35.7 mph 0.01 in   Drizzle
8:55 PM 41.0 °F 31.4 °F 39.2 °F 93% 29.22 in 10.0 mi WSW 21.9 mph 34.5 mph 0.01 in Rain Rain
11:55 PM 41.0 °F 31.1 °F 39.2 °F 93% 29.19 in 10.0 mi WSW 23.0 mph 31.1 mph N/A   Drizzle